EW3554 Weather Reports


Display with metric or nautical units.
time (UTC)temp
F
wind
direction
speed
MPH
gust
MPH
rain 1hr
in
rain 24hr
in
rain mn
in
humidity
%
barometer
mb
20260504234015 67 284 1.0 4.0 0.00 0.00 0.00 35 1014.2
20260504233015 68 337 2.0 8.0 0.00 0.00 0.00 37 1014.3
20260504232015 69 308 1.0 4.0 0.00 0.00 0.00 35 1014.2
20260504231015 69 311 2.0 7.0 0.00 0.00 0.00 34 1014.2
20260504230015 70 283 1.0 8.0 0.00 0.00 0.00 34 1014.4
20260504225015 71 266 3.0 10.0 0.00 0.00 0.00 33 1014.4
20260504224035 72 274 1.0 7.0 0.00 0.00 0.00 34 1014.4
20260504223015 72 266 3.0 8.0 0.00 0.00 0.00 31 1014.6
20260504222035 73 303 2.0 3.0 0.00 0.00 0.00 32 1014.7
20260504221035 74 270 3.0 10.0 0.00 0.00 0.00 30 1014.8
20260504220015 75 258 2.0 9.0 0.00 0.00 0.00 30 1014.8
20260504215015 75 290 2.0 8.0 0.00 0.00 0.00 32 1014.8
20260504214035 75 248 1.0 4.0 0.00 0.00 0.00 31 1014.8
20260504213015 75 275 3.0 10.0 0.00 0.00 0.00 31 1014.8
20260504212035 75 254 2.0 10.0 0.00 0.00 0.00 32 1014.8
20260504211015 76 249 3.0 8.0 0.00 0.00 0.00 32 1015.0
20260504210015 76 248 2.0 7.0 0.00 0.00 0.00 31 1015.1
20260504205015 76 267 2.0 6.0 0.00 0.00 0.00 33 1015.1
20260504204015 76 239 3.0 7.0 0.00 0.00 0.00 32 1015.2
20260504203015 77 266 2.0 5.0 0.00 0.00 0.00 31 1015.3
20260504202015 76 251 2.0 3.0 0.00 0.00 0.00 31 1015.4
20260504201015 76 232 3.0 6.0 0.00 0.00 0.00 29 1015.4
20260504200015 76 199 2.0 5.0 0.00 0.00 0.00 29 1015.6
20260504195015 76 208 2.0 5.0 0.00 0.00 0.00 31 1015.8
20260504194015 76 234 2.0 4.0 0.00 0.00 0.00 29 1015.8
20260504193015 75 150 2.0 5.0 0.00 0.00 0.00 32 1016.0
20260504192015 75 182 3.0 4.0 0.00 0.00 0.00 31 1016.1
20260504191015 74 183 2.0 5.0 0.00 0.00 0.00 34 1016.3
20260504190015 74 184 2.0 5.0 0.00 0.00 0.00 35 1016.4
20260504185015 73 181 2.0 7.0 0.00 0.00 0.00 36 1016.4
20260504184015 72 181 3.0 5.0 0.00 0.00 0.00 34 1016.5
20260504183015 73 161 2.0 6.0 0.00 0.00 0.00 34 1016.9
20260504182035 72 202 1.0 4.0 0.00 0.00 0.00 38 1016.9
20260504181015 72 221 2.0 4.0 0.00 0.00 0.00 36 1017.1
20260504180015 71 187 1.0 4.0 0.00 0.00 0.00 39 1017.3
20260504175015 71 203 2.0 4.0 0.00 0.00 0.00 37 1017.5
20260504174015 71 166 2.0 5.0 0.00 0.00 0.00 37 1017.5
20260504173015 70 165 2.0 5.0 0.00 0.00 0.00 35 1017.5
20260504172015 70 227 2.0 4.0 0.00 0.00 0.00 35 1017.6
20260504171015 69 198 2.0 5.0 0.00 0.00 0.00 36 1017.7
20260504151015 60 240 0.0 3.0 0.00 0.00 0.00 48 1019.4
20260504141014 52 168 1.0 4.0 0.00 0.00 0.00 68 1019.3
20260504081016 35 0.0 0.0 0.00 0.00 0.00 87 1018.5
20260504050015 39 0.0 0.0 0.00 0.00 0.00 80 1018.5
20260504045015 40 0.0 0.0 0.00 0.00 0.00 80 1018.6
20260504044015 40 0.0 0.0 0.00 0.00 0.00 79 1018.5
20260504043015 40 0.0 0.0 0.00 0.00 0.00 79 1018.1
20260504042016 40 0.0 0.0 0.00 0.00 0.00 78 1018.1
20260504041016 41 0.0 0.0 0.00 0.00 0.00 78 1018.1
20260504040015 41 0.0 0.0 0.00 0.00 0.00 76 1018.1
20260504035016 42 0.0 0.0 0.00 0.00 0.00 75 1018.1
20260504034016 42 0.0 0.0 0.00 0.00 0.00 74 1017.7
20260504033016 42 0.0 0.0 0.00 0.00 0.00 74 1017.6
20260504032036 43 0.0 0.0 0.00 0.00 0.00 72 1017.6
20260504031016 43 0.0 0.0 0.00 0.00 0.00 70 1017.4
20260504030036 43 0.0 0.0 0.00 0.00 0.00 68 1017.5
20260504025016 44 0.0 0.0 0.00 0.00 0.00 68 1017.6
20260504024016 45 0.0 0.0 0.00 0.00 0.00 68 1017.6
20260504023036 45 0.0 0.0 0.00 0.00 0.00 66 1017.7
20260504021016 46 0.0 0.0 0.00 0.00 0.00 63 1017.6
20260504020016 47 0.0 0.0 0.00 0.00 0.00 61 1017.4
20260504015016 48 0.0 0.0 0.00 0.00 0.00 59 1017.3
20260504014016 48 0.0 0.0 0.00 0.00 0.00 58 1017.1
20260504013016 49 0.0 0.0 0.00 0.00 0.00 55 1017.1
20260504012016 50 0.0 0.0 0.00 0.00 0.00 54 1016.9
20260504011036 51 0.0 0.0 0.00 0.00 0.00 51 1016.8
20260504010016 52 0.0 0.0 0.00 0.00 0.00 50 1016.8
20260504005036 52 0.0 0.0 0.00 0.00 0.00 48 1016.8
20260504004016 53 0.0 0.0 0.00 0.00 0.00 45 1016.6
20260504003036 53 0.0 0.0 0.00 0.00 0.00 42 1016.5
20260504002016 54 188 0.0 2.0 0.00 0.00 0.00 42 1016.4
20260504001016 55 188 1.0 2.0 0.00 0.00 0.00 40 1016.3
20260504000036 56 188 1.0 2.0 0.00 0.00 0.00 38 1016.3
20260503235016 57 188 1.0 3.0 0.00 0.00 0.00 37 1016.5